Location: Newark
(43.9494°N, 6.8108°E)
Time: 04:56:54
(UTC+00:00)

Envisat - Pass Details

Date: 22 September 2019
Orbit: 764 x 766 km, 98.1° (Epoch: 17 October)

Event Time Altitude Azimuth Distance (km) Brightness Sun altitude
Rises 18:07:49 0° 182° (S) 3,218 6.2 -7.4°
Reaches altitude 10° 18:10:12 10° 188° (S) 2,297 5.5 -7.9°
Maximum altitude 18:15:03 46° 261° (W) 1,019 4.2 -8.7°
Drops below altitude 10° 18:19:57 10° 335° (NNW) 2,312 6.0 -9.6°
Sets 18:22:22 0° 342° (NNW) 3,243 6.7 -10.0°
